Regional Weather Roundup
Issued by NWS Newport/Morehead, NC

Current Version | Previous Version | Text Only | Print | Product List | Glossary On
Versions: 1 2 3 4 5 6 7 8 9 10 11 12 13 14 15 16 17 18 19 20 21 22 23 24 25 26 27 28 29 30 31 32 33 34 35 36 37 38 39 40 41 42 43 44 45 46 47 48 49 50
000 ASUS42 KMHX 012224 RWRMHX WEATHER ROUNDUP FOR EASTERN NORTH CAROLINA NATIONAL WEATHER SERVICE NEWPORT/MOREHEAD CITY NC 500 PM EST THU DEC 01 2016 NOTE: "FAIR" INDICATES FEW OR NO CLOUDS BELOW 12,000 FEET WITH NO SIGNIFICANT WEATHER AND/OR OBSTRUCTIONS TO VISIBILITY NCZ015>017-031-032-045>047-102-103-012300- NORTH COAST CITY SKY/WX TMP DP RH WIND PRES REMARKS EDENTON CLEAR 61 39 44 CALM 29.85R ELIZABETH CITY CLEAR 57 39 51 W8 29.83R KITTY HAWK CLEAR 58 47 64 CALM 29.82R MANTEO CLEAR 58 45 62 NW3 29.84R $$ NCZ045>047-081-094-103-104-012300- CENTRAL COAST CITY SKY/WX TMP DP RH WIND PRES REMARKS FRISCO CLEAR 62 55 77 VRB3 29.83R $$ NCZ095-097-098-100-101-012300- SOUTHERN COAST CITY SKY/WX TMP DP RH WIND PRES REMARKS BEAUFORT CLEAR 63 55 75 SW7 29.84R CEDAR ISLAND NOT AVBL JACKSONVILLE CLEAR 64 45 49 W8 29.85R PINEY ISLAND NOT AVBL WILMINGTON CLEAR 65 44 46 W10 29.86R $$ NCZ011>013-027>030-043-044-078>080-089-090>093-098-012300- COASTAL PLAIN CITY SKY/WX TMP DP RH WIND PRES REMARKS AHOSKIE CLEAR 56 36 46 CALM 29.87R CLINTON CLEAR 62 44 50 W3 29.88R ELIZABETHTOWN CLEAR 63 45 52 W3 29.88R GOLDSBORO CLEAR 62 38 40 W9 29.85R GREENVILLE CLEAR 61 37 41 W3 29.88R HAVELOCK CLEAR 65 48 54 NW6 29.85R KENANSVILLE CLEAR 61 43 51 CALM 29.87R KINSTON CLEAR 61 41 48 W3 29.87R NEW BERN CLEAR 63 43 48 W5 29.86R RICHLANDS CLEAR 63 49 60 CALM 29.86R ROCKY MOUNT CLEAR 60 34 37 W3 29.87R WASHINGTON CLEAR 61 39 45 CALM 29.85R WHITEVILLE CLEAR 62 44 50 CALM 29.88R $$ AMZ130-135-150-152-154-156-158-170-250-252-270-ANZ085-086-088-633-658-670-012300- MARINE OBSERVATIONS STATION/POSITION TIME TEMP WIND PRES WAVE SWELL AIR SEA DIR/SP/G HT/PER HT/PER (UTC) (F) (DEG/KT/KT) (MB) (FT/S) (FT/S) CHESAPEAKE LIGHT NOT AVBL 64 E VA BEACH 2150 58 60 260/ 6/ 6 1009.2 5/ 7 5/ 7 DUCK 2200 59 58 270/ 7/ 8 1009.7 2 E DUCK NOT AVBL OREGON INLET 2200 60 60 300/ 6/ 8 1010.0 13E OREGON INLT 2200 63 N/A 4/ 8 3/ 8 HATTERAS CG 2200 62 65 290/ 6/ 7 1009.9 DIAMOND BUOY 2150 68 75 270/ 12/ 16 1009.8 5/ 8 3/ 8 CAPE LOOKOUT 2200 63 240/ 9/ 12 1010.2 BEAUFORT LAB 2200 63 60 240/ 5/ 8 1009.5 30 SE NEW RVR IN 2208 67 72 260/ 16/ 19 1010.9 30 SE NEW RVR IN NOT AVBL 27 SE WRIGHTSVLE 2208 65 66 240/ 16/ 21 1010.8 5 SE WRIGHTSVLE 2208 61 63 240/ 12/ 17 1010.9 225 S CAPE HAT 2150 74 74 230/ 16/ 19 1012.4 8/ 8 5/ 8 41 SE CHARLESTON 2150 66 76 260/ 17/ 19 1012.4 5/ 5 2/ 9 $$

USA.gov is the U.S. government's official web portal to all federal, state and local government web resources and services.